Home   Weather   Leipzig   Past weeks
Flag for Germany

Past Weather in Leipzig, Saxony, Germany — Yesterday and Last 2 Weeks

Now
57 °F

Passing clouds.


Feels Like: 55 °F
Forecast: 70 / 54 °F
Wind: 9 mph from South

Location: Leipzig-Schkeuditz

Current Time: Oct 19, 2019 at 10:49:44 pm

Latest Report: Oct 19, 2019 at 10:20 pm


Visibility: N/A

Pressure: 29.80 "Hg

Humidity: 77%

Dew Point: 50 °F

Location of LeipzigLocation

Past Weather in Leipzig — Graph

°F

Leipzig Temperature Yesterday

Maximum temperature yesterday: 64 °F (at 12:20 pm)
Minimum temperature yesterday: 50 °F (at 10:50 pm)
Average temperature yesterday: 58 °F

High & Low Weather Summary for the Past Weeks

 TemperatureHumidityPressure
High77 °F (Oct 13, 2:50 pm)100% (Oct 4, 11:50 pm)30.15 "Hg (Oct 4, 11:50 pm)
Low34 °F (Oct 7, 6:50 am)47% (Oct 12, 3:20 pm)29.56 "Hg (Oct 5, 3:20 am)
Average55 °F79%29.88 "Hg
* Reported Oct 4 9:20 pm — Oct 19 9:50 pm, Leipzig. Weather by CustomWeather, © 2019

Note: Actual official high and low records may vary slightly from our data, if they occured in-between our weather recording intervals... More about our weather records

Advertising

Leipzig Weather History for the Previous 24 Hours

Scroll right to see more
 ConditionsComfort  
Time TempWeatherWind HumidityBarometerVisibility
9:50 pm
Sat, Oct 19
55 °FClear.9 mph82%29.80 "Hg10 mi
9:20 pm55 °FClear.12 mph82%29.80 "Hg10 mi
8:50 pm55 °FClear.10 mph82%29.80 "Hg10 mi
8:20 pm57 °FClear.10 mph77%29.80 "Hg10 mi
7:50 pm57 °FClear.10 mph82%29.80 "Hg10 mi
7:20 pm59 °FClear.12 mph77%29.80 "Hg10 mi
6:50 pm59 °FClear.14 mph77%29.77 "Hg10 mi
6:20 pm59 °FClear.12 mph77%29.77 "Hg10 mi
5:50 pm59 °FSunny.10 mph77%29.80 "Hg10 mi
5:20 pm59 °FSunny.9 mph77%29.80 "Hg10 mi
4:50 pm59 °FSunny.14 mph77%29.77 "Hg10 mi
4:20 pm59 °FSunny.16 mph77%29.77 "Hg10 mi
3:50 pm61 °FSunny.15 mph77%29.80 "Hg10 mi
3:20 pm59 °FPassing clouds.12 mph82%29.80 "HgN/A
2:50 pm59 °FPassing clouds.13 mph82%29.80 "HgN/A
2:20 pm59 °FPassing clouds.13 mph82%29.80 "HgN/A
1:50 pm59 °FPassing clouds.14 mph82%29.80 "HgN/A
1:20 pm57 °FLight rain. Passing clouds.12 mph88%29.83 "HgN/A
12:50 pm57 °FLight rain. Passing clouds.9 mph88%29.83 "HgN/A
12:20 pm57 °FLight rain. Passing clouds.10 mph88%29.83 "HgN/A
11:50 am57 °FLight rain. Passing clouds.12 mph82%29.83 "HgN/A
11:20 am57 °FLight rain. Passing clouds.12 mph82%29.83 "HgN/A
10:50 am57 °FLight rain. Passing clouds.10 mph82%29.83 "HgN/A
10:20 am57 °FLight rain. Passing clouds.10 mph82%29.83 "HgN/A
9:50 am55 °FLight rain. Passing clouds.10 mph88%29.83 "HgN/A
9:20 am54 °FPassing clouds.6 mph88%29.83 "HgN/A
8:50 am54 °FPassing clouds.6 mph88%29.83 "HgN/A
8:20 am52 °FScattered clouds.6 mph94%29.83 "HgN/A
7:50 am52 °FScattered clouds.6 mph88%29.83 "HgN/A
7:20 am52 °FPassing clouds.6 mph88%29.83 "HgN/A
6:50 am52 °FPassing clouds.6 mph88%29.86 "HgN/A
6:20 am54 °FPassing clouds.8 mph82%29.86 "HgN/A
5:50 am52 °FClear.8 mph88%29.86 "Hg10 mi
5:20 am52 °FClear.12 mph88%29.86 "Hg10 mi
4:50 am52 °FClear.8 mph82%29.86 "Hg10 mi
4:20 am52 °FClear.8 mph82%29.86 "Hg10 mi
3:50 am52 °FClear.7 mph82%29.86 "Hg10 mi
3:20 am50 °FClear.8 mph88%29.86 "Hg10 mi
2:50 am50 °FClear.5 mph88%29.86 "Hg10 mi
2:20 am50 °FClear.6 mph82%29.89 "Hg10 mi
1:50 am50 °FPassing clouds.6 mph82%29.89 "HgN/A
1:20 am50 °FPassing clouds.3 mph82%29.89 "HgN/A
12:50 am50 °FPassing clouds.1 mph82%29.86 "HgN/A
12:20 am50 °FPassing clouds.2 mph82%29.86 "HgN/A
11:50 pm
Fri, Oct 18
50 °FClear.6 mph82%29.86 "Hg10 mi
11:20 pm50 °FClear.6 mph82%29.86 "Hg10 mi
10:50 pm50 °FClear.7 mph82%29.86 "Hg10 mi
10:20 pm52 °FPassing clouds.6 mph77%29.86 "HgN/A
Weather by CustomWeather, © 2019

See weather overview